YUNYAO-1 47

导读

YUNYAO-1 47(云遥一号47星)是中国于2025年3月21日在酒泉卫星发射中心,通过谷神星一号运载火箭成功发射的云遥气象星座卫星之一。它搭载GNSS掩星探测载荷,可反演大气层温湿度、压力及电离层电子密度数据,服务气象观测领域,为气候研究、天气预报提供支撑,本次发射完成了云遥一号43-48星组网部署,拓展了我国气象探测卫星网络。

基本信息
目录编号:
63348
目录名称:
YUNYAO-1 47
国际标识:
2025-059E
轨道中心:
EARTH
卫星名称:
YUNYAO-1 47
卫星全名:
YUNYAO-1 47
卫星状态:
在轨 (已飞行539 天)
发射日期:
2025-03-21 UTC
国别 :
中国 (CN)
星等 :
--
轨道信息
数据来源 国际轨道数据
星历时间: 2026-09-11T00:41:58+0800
10小时前
查看轨道信息
半长轴: 6909.386km
偏心率: 0.0014713
轨道倾角: 97.612°
近地点辐角 220.789°
升交点赤经 74.699°
平近点角 139.224°
近地点: 521.083km
远地点: 541.415km
周期: 95.262分钟
每日圈数: 15.116234
详细信息
使用方式:
暂无
2D轨道图
3D轨道图
轨道高度分析图
轨道倾角分析图
轨道综合分析图
查看轨道综合分析图
与全量物体交会距离演化趋势
与全量物体交会风险概率演化趋势